Location: Brockett
(40.8000°S, 175.4500°E)
Time: 23:12:36
(UTC+00:00)

Envisat - Visible Passes

Search period start: 13 October 2024 00:00
Search period end: 23 October 2024 00:00
Orbit: 762 x 764 km, 98.3° (Epoch: 13 October)

Date Brightness Start Highest point End Pass type
(mag) Time Alt. Az. Time Alt. Az. Time Alt. Az.
13 Oct 4.8 13:40:55 27° ESE 13:40:55 27° ESE 13:44:42 10° S visible
13 Oct 4.2 15:21:03 27° SW 15:21:03 27° SW 15:23:56 10° SSW visible
14 Oct 5.6 13:02:49 13° ESE 13:03:24 13° ESE 13:05:39 10° SSE visible
14 Oct 3.5 14:42:57 51° SSW 14:42:57 51° SSW 14:46:47 10° SSW visible
15 Oct 4.1 14:04:52 42° SE 14:04:52 42° SE 14:09:07 10° S visible
15 Oct 4.6 15:45:00 19° WSW 15:45:00 19° WSW 15:47:17 10° SW visible
16 Oct 5.1 13:26:46 21° ESE 13:27:04 21° ESE 13:30:50 10° SSE visible
16 Oct 3.7 15:06:55 40° WSW 15:06:55 40° WSW 15:10:38 10° SSW visible
17 Oct 3.3 14:28:49 64° SSE 14:28:49 64° SSE 14:33:16 10° S visible
17 Oct 5.0 16:08:57 11° WSW 16:08:57 11° WSW 16:09:45 10° WSW visible
18 Oct 4.4 13:50:44 34° ESE 13:50:48 34° ESE 13:55:24 10° S visible
18 Oct 4.1 15:30:52 26° WSW 15:30:52 26° WSW 15:34:11 10° SW visible
19 Oct 5.4 13:12:38 15° ESE 13:13:43 16° ESE 13:16:47 10° SSE visible
19 Oct 3.1 14:52:46 59° WSW 14:52:46 59° WSW 14:57:13 10° SSW visible
20 Oct 3.5 14:14:41 56° ESE 14:14:41 56° ESE 14:19:41 10° S visible
20 Oct 4.6 15:54:49 16° WSW 15:54:49 16° WSW 15:57:15 10° SW visible
21 Oct 4.8 13:36:35 25° E 13:37:24 26° ESE 13:41:36 10° SSE visible
21 Oct 3.6 15:16:44 37° W 15:16:44 37° W 15:20:56 10° SSW visible
22 Oct 5.7 12:58:30 10° E 13:00:23 12° ESE 13:02:23 10° SE visible
22 Oct 2.9 14:38:38 86° WSW 14:38:38 86° WSW 14:43:44 10° SSW visible
